sat.trackr.live / text

‹ back to catalog

HULIANWANG DIGUI-170

NORAD 69573 · 2026-137B

PAYLOAD ACTIVE UNKNOWN

§ Identity

Operator
Country
PRC
Launch date
2026-06-17
Launch site
WSC
Launch vehicle
Mass (kg)
RCS (m²)

External: N2YO · Heavens-Above · Gunter

§ Orbital elements

Epoch: 2026-09-20T00:46:43.406976Z

Period
108.33 min
Inclination
50.0001°
Eccentricity
0.0000279
Mean motion
13.29328271 rev/d
Perigee alt
1,149.1 km
Apogee alt
1,149.5 km
Semi-major
7,527.4 km
B*
1.0293e-4
RAAN
255.8990°
Arg perigee
353.8059°
Mean anomaly
6.2810°
Rev number
1,295

§ Raw data

HULIANWANG DIGUI-1701 69573U 26137B   26263.03244684 -.00000076  00000+0  10293-3 0  99902 69573  50.0001 255.8990 0000279 353.8059   6.2810 13.29328271 12959

JSON: /api/v1/satellites/69573 · /tle

For live sub-satellite position, see the globe view (requires WebGL).

§ Visibility from observer

Set your observer location to see the next 7 days of passes ≥ 10°. The values pass through the URL so the page stays shareable.

No JS? Fill the form by hand. The geolocation button needs JavaScript.